Погода в Жиззахлике

Узбекистан     40°08′36″N   67°47′59″E
темп.,
°C
ветер,
м/с
пор.,
м/с
влажн.,
%
обл.,
%
осадки,
мм/ч
давл.,
гПа
погр.,
м
24 июня, чт
чт2423:00+23сз33220 0.0 101214
02:00+22сз44240 0.0 101132
05:00+20сз22280 0.0 101013
08:00+27ссз34190 0.0 1010470
11:00+32с54150 0.0 10091591
14:00+35с45110 0.0 10082367
17:00+35ссв45110 0.0 10072863
20:00+29юв44160 0.0 100745
25 июня, пт
пт2523:00+25с35240 0.0 100863
02:00+25сз34351 0.0 100846
05:00+23сз35420 0.0 100872
08:00+27ссз56320 0.0 1009591
11:00+31с66220 0.0 10081425
14:00+34с65180 0.0 10062360
17:00+34с55150 0.0 10052589
20:00+27ссв410170 0.0 1007166
26 июня, сб
сб2623:00+21зсз22230 0.0 100813
02:00+21зсз33230 0.0 100719
05:00+19сз33270 0.0 100827
08:00+25ссз45220 0.0 1009550
11:00+30с55150 0.0 10081324
14:00+33с55130 0.0 10061796
17:00+34ссв55120 0.0 10052155
20:00+26всв22200 0.0 100611
27 июня, вс
вс2723:00+25зсз44210 0.0 100644
02:00+23сз48240 0.0 100696
05:00+21зсз33280 0.0 100726
08:00+27ссз45210 0.0 1008502
11:00+33ссз54150 0.0 10071021
14:00+37с54110 0.0 10051601
17:00+37ссв331143 0.0 10042158
20:00+30св221818 0.0 100411
28 июня, пн
пн2823:00+26зюз12250 0.0 100511
02:00+25зсз33180 0.0 100422
05:00+23з11240 0.0 100514
08:00+31ссз34152 0.0 1006428
11:00+36с541160 0.0 10051118
14:00+40с4490 0.0 10032372
17:00+39вюв641271 0.0 10022932
20:00+31вюв23210 0.0 100312